Flag for Germany Weather past 2 weeks in Ravensburg, Baden-Württemberg, Germany

Now
63 °F

Overcast.


Feels Like: 63 °F
Forecast: 57 / 79 °F
Wind: 3 mph from Southeast

Location: Friedrichshafen Airport

Current Time: Aug 2, 2015 at 1:23:04 AM

Latest Report: Aug 2, 2015 at 12:50 AM


Visibility: 4 mi

Pressure: 30.07 "Hg

Humidity: 83%

Dew point: 57 °F

Location of RavensburgLocation

Historic Weather in Ravensburg — Graph

°F

Ravensburg temperature yesterday

Maximum temperature yesterday: 70 °F (at 3:50 PM)
Minimum temperature yesterday: 55 °F (at 4:50 AM)
Average temperature yesterday: 62 °F

Past Weeks' High & Low Weather Summary

 TemperatureHumidityPressure
High91 °F (Jul 22, 4:20 PM)88% (Jul 19, 1:50 AM)30.18 "Hg (Jul 19, 1:50 AM)
Low46 °F (Jul 30, 5:50 AM)26% (Jul 21, 5:50 PM)29.74 "Hg (Jul 24, 6:20 PM)
Average68 °F61%29.97 "Hg
* Reported Jul 17 11:50 PM — Aug 1 11:50 PM, Ravensburg, Weather by CustomWeather, © 2015

Note: Actual official high and low records may vary slightly from our data, if they occured in-between our weather recording intervals... More about our weather records

Advertising

Ravensburg weather history for previous 24 hours

 ConditionsComfort  
Time TempWeatherWind HumidityBarometerVisibility
11:50 PM
Sat, Aug 1
63 °FOvercast.2 mph77%30.07 "HgN/A
11:20 PM63 °FMostly cloudy.1 mph77%30.07 "HgN/A
10:50 PM63 °FMild.1 mph77%30.07 "HgN/A
10:20 PM64 °FOvercast.3 mph68%30.07 "HgN/A
9:20 PM64 °FOvercast.2 mph68%30.04 "HgN/A
8:50 PM64 °FSunny.2 mph68%30.04 "Hg10 mi
8:20 PM66 °FSunny.7 mph64%30.04 "Hg10 mi
7:50 PM66 °FSunny.7 mph64%30.01 "Hg10 mi
7:20 PM68 °FSunny.7 mph60%30.01 "Hg10 mi
6:50 PM70 °FSunny.1 mph57%30.01 "Hg10 mi
6:20 PM68 °FSunny.3 mph56%30.01 "Hg10 mi
5:50 PM68 °FSunny.3 mph56%30.01 "Hg10 mi
5:20 PM68 °FSunny.6 mph56%30.01 "Hg10 mi
4:50 PM68 °FSunny.2 mph56%30.01 "Hg10 mi
4:20 PM68 °FSunny.5 mph60%30.01 "Hg10 mi
3:50 PM70 °FPartly sunny.3 mph53%30.01 "HgN/A
3:20 PM68 °FPartly sunny.2 mph56%30.01 "HgN/A
2:50 PM66 °FPartly sunny.5 mph60%30.01 "HgN/A
2:20 PM64 °FOvercast.5 mph68%30.01 "HgN/A
1:50 PM63 °FOvercast.2 mph68%30.04 "HgN/A
1:20 PM61 °FOvercast.2 mph72%30.04 "HgN/A
12:50 PM61 °FPartly sunny.2 mph72%30.04 "HgN/A
12:20 PM61 °FPartly sunny.3 mph77%30.04 "HgN/A
11:50 AM61 °FClear.3 mph72%30.04 "HgN/A
11:20 AM59 °FLight rain. Clear.6 mph77%30.04 "HgN/A
10:50 AM59 °FLight rain. Clear.6 mph77%30.04 "HgN/A
10:20 AM59 °FLight rain. Clear.7 mph77%30.04 "HgN/A
9:50 AM59 °FLight rain. Mostly cloudy.5 mph77%30.04 "HgN/A
9:20 AM59 °FLight rain. Overcast.3 mph72%30.04 "HgN/A
8:50 AM59 °FSprinkles. Overcast.6 mph72%30.01 "HgN/A
8:20 AM59 °FSprinkles. Clear.6 mph68%30.01 "HgN/A
7:50 AM59 °FSprinkles. Clear.6 mph68%29.98 "HgN/A
7:20 AM59 °FSunny.3 mph63%29.95 "Hg10 mi
6:50 AM57 °FClear.2 mph63%29.92 "Hg10 mi
6:20 AM57 °FClear.5 mph63%29.92 "Hg10 mi
5:50 AM57 °FClear.5 mph63%29.92 "Hg10 mi
4:50 AM55 °FClear.2 mph67%29.92 "Hg10 mi
4:20 AM57 °FClear.3 mph67%29.92 "Hg10 mi
3:50 AM59 °FClear.5 mph59%29.92 "Hg10 mi
3:20 AM59 °FClear.3 mph63%29.92 "Hg10 mi
2:50 AM61 °FClear.2 mph52%29.92 "Hg10 mi
2:20 AM61 °FPassing clouds.5 mph55%29.92 "HgN/A
1:50 AM61 °FSprinkles. Overcast.10 mph59%29.89 "HgN/A
1:20 AM63 °FClear.3 mph49%29.95 "Hg10 mi
Weather by CustomWeather, © 2015

See weather overviewHow to use our weather pages